EN

Hourly Weather Bolshoe Panskoe

Today, 20 October, Tuesday

Time Temperature Precipitation Wind Pressure Humidity
00:00 +1°C° 0 mm 6 mps 743 mmHg 80%
01:00 +1°C° 0 mm 6 mps 743 mmHg 81%
02:00 +1°C° 0 mm 6 mps 743 mmHg 82%
03:00 -1°C° 0 mm 6 mps 743 mmHg 82%
04:00 -1°C° 0 mm 6 mps 743 mmHg 83%
05:00 -1°C° 0 mm 6 mps 743 mmHg 84%
06:00 -1°C° 0 mm 7 mps 743 mmHg 83%
07:00 0°C° 0 mm 7 mps 743 mmHg 81%
08:00 0°C° 0 mm 8 mps 743 mmHg 80%
09:00 0°C° 0.1 mm 8 mps 743 mmHg 79%
10:00 +2°C° 0.1 mm 7 mps 743 mmHg 79%
11:00 +2°C° 0.1 mm 7 mps 743 mmHg 78%
12:00 +2°C° 0.1 mm 7 mps 743 mmHg 79%
13:00 +2°C° 0.1 mm 7 mps 744 mmHg 80%
14:00 +2°C° 0.1 mm 7 mps 744 mmHg 80%
15:00 +2°C° 0.1 mm 7 mps 744 mmHg 79%
16:00 +1°C° 0.1 mm 6 mps 745 mmHg 79%
17:00 +1°C° 0.1 mm 5 mps 745 mmHg 78%
18:00 0°C° 0 mm 5 mps 746 mmHg 79%
19:00 0°C° 0 mm 5 mps 747 mmHg 81%
20:00 -1°C° 0 mm 4 mps 747 mmHg 82%
21:00 -1°C° 0 mm 4 mps 748 mmHg 84%
22:00 -2°C° 0 mm 4 mps 748 mmHg 86%
23:00 -2°C° 0 mm 4 mps 748 mmHg 88%

Tomorrow, 21 October, Wednesday

Time Temperature Precipitation Wind Pressure Humidity
00:00 -2°C° 0 mm 4 mps 748 mmHg 90%
01:00 -2°C° 0 mm 4 mps 749 mmHg 91%
02:00 -3°C° 0 mm 4 mps 749 mmHg 93%
03:00 -3°C° 0 mm 4 mps 749 mmHg 93%
04:00 -2°C° 0 mm 3 mps 749 mmHg 93%
05:00 -2°C° 0 mm 3 mps 750 mmHg 92%
06:00 -1°C° 0 mm 3 mps 750 mmHg 88%
07:00 -1°C° 0 mm 3 mps 750 mmHg 84%
08:00 0°C° 0 mm 3 mps 750 mmHg 80%
09:00 +1°C° 0 mm 3 mps 749 mmHg 78%
10:00 +1°C° 0 mm 4 mps 749 mmHg 76%
11:00 +3°C° 0 mm 4 mps 749 mmHg 75%
12:00 +1°C° 0.1 mm 4 mps 749 mmHg 82%
13:00 +1°C° 0.1 mm 4 mps 749 mmHg 89%
14:00 +1°C° 0.1 mm 4 mps 749 mmHg 95%
15:00 +2°C° 0.2 mm 3 mps 748 mmHg 96%
16:00 +2°C° 0.2 mm 3 mps 748 mmHg 96%
17:00 +1°C° 0.2 mm 3 mps 748 mmHg 96%
18:00 +3°C° 0.2 mm 2 mps 748 mmHg 97%
19:00 +3°C° 0.2 mm 2 mps 747 mmHg 97%
20:00 +3°C° 0.2 mm 2 mps 747 mmHg 97%
21:00 +3°C° 0 mm 2 mps 747 mmHg 97%
22:00 +3°C° 0 mm 2 mps 747 mmHg 97%
23:00 +3°C° 0 mm 2 mps 746 mmHg 96%

Day after tomorrow, 22 October, Thursday

Time Temperature Precipitation Wind Pressure Humidity
00:00 +3°C° 0 mm 2 mps 746 mmHg 96%
01:00 +4°C° 0 mm 2 mps 746 mmHg 96%
02:00 +4°C° 0 mm 2 mps 746 mmHg 96%
03:00 +4°C° 0 mm 2 mps 746 mmHg 96%
04:00 +4°C° 0 mm 2 mps 746 mmHg 96%
05:00 +4°C° 0 mm 2 mps 746 mmHg 96%
06:00 +4°C° 0 mm 2 mps 746 mmHg 96%
07:00 +3°C° 0 mm 3 mps 746 mmHg 95%
08:00 +4°C° 0 mm 3 mps 745 mmHg 95%
09:00 +4°C° 0 mm 3 mps 745 mmHg 93%
10:00 +5°C° 0 mm 3 mps 745 mmHg 92%
11:00 +5°C° 0 mm 3 mps 745 mmHg 90%
12:00 +5°C° 0.3 mm 3 mps 745 mmHg 91%
13:00 +7°C° 0.3 mm 3 mps 744 mmHg 93%
14:00 +7°C° 0.3 mm 3 mps 744 mmHg 94%
15:00 +7°C° 0.4 mm 3 mps 743 mmHg 95%
16:00 +7°C° 0.4 mm 3 mps 743 mmHg 95%
17:00 +7°C° 0.4 mm 3 mps 743 mmHg 96%
18:00 +7°C° 0.4 mm 3 mps 742 mmHg 96%
19:00 +6°C° 0.4 mm 4 mps 742 mmHg 95%
20:00 +6°C° 0.4 mm 4 mps 742 mmHg 95%
21:00 +7°C° 0 mm 4 mps 742 mmHg 94%
22:00 +7°C° 0 mm 4 mps 742 mmHg 94%
23:00 +7°C° 0 mm 4 mps 742 mmHg 93%

23 October, Friday

Time Temperature Precipitation Wind Pressure Humidity
00:00 +7°C° 0 mm 4 mps 742 mmHg 94%
01:00 +7°C° 0 mm 4 mps 742 mmHg 95%
02:00 +7°C° 0 mm 4 mps 743 mmHg 96%
03:00 +7°C° 0 mm 4 mps 743 mmHg 96%
04:00 +7°C° 0 mm 4 mps 743 mmHg 96%
05:00 +7°C° 0 mm 4 mps 743 mmHg 96%
06:00 +7°C° 0 mm 4 mps 743 mmHg 94%
07:00 +8°C° 0 mm 5 mps 743 mmHg 93%
08:00 +8°C° 0 mm 5 mps 743 mmHg 92%
09:00 +9°C° 0 mm 5 mps 743 mmHg 87%
10:00 +12°C° 0 mm 5 mps 743 mmHg 83%
11:00 +13°C° 0 mm 6 mps 743 mmHg 78%
12:00 +13°C° 0 mm 6 mps 742 mmHg 78%
13:00 +13°C° 0 mm 6 mps 742 mmHg 78%
14:00 +13°C° 0 mm 6 mps 741 mmHg 78%
15:00 +13°C° 0 mm 6 mps 741 mmHg 80%
16:00 +11°C° 0 mm 6 mps 741 mmHg 82%
17:00 +11°C° 0 mm 6 mps 740 mmHg 85%
18:00 +11°C° 0 mm 6 mps 740 mmHg 84%
19:00 +11°C° 0 mm 7 mps 740 mmHg 83%
20:00 +11°C° 0 mm 7 mps 740 mmHg 82%
21:00 +11°C° 0.1 mm 7 mps 739 mmHg 83%
22:00 +11°C° 0.1 mm 6 mps 739 mmHg 83%
23:00 +11°C° 0.1 mm 6 mps 738 mmHg 84%

24 October, Saturday

Time Temperature Precipitation Wind Pressure Humidity
00:00 +10°C° 0.2 mm 5 mps 738 mmHg 86%
01:00 +10°C° 0.2 mm 5 mps 738 mmHg 88%
02:00 +9°C° 0.2 mm 5 mps 738 mmHg 90%
03:00 +10°C° 0.1 mm 4 mps 738 mmHg 90%
04:00 +10°C° 0.1 mm 4 mps 738 mmHg 91%
05:00 +10°C° 0.1 mm 3 mps 739 mmHg 91%
06:00 +10°C° 0 mm 4 mps 739 mmHg 91%
07:00 +10°C° 0 mm 4 mps 739 mmHg 91%
08:00 +10°C° 0 mm 4 mps 739 mmHg 91%
09:00 +10°C° 0 mm 4 mps 739 mmHg 86%
10:00 +11°C° 0 mm 4 mps 740 mmHg 81%
11:00 +11°C° 0 mm 4 mps 740 mmHg 76%
12:00 +11°C° 0 mm 4 mps 740 mmHg 74%
13:00 +11°C° 0 mm 4 mps 741 mmHg 71%
14:00 +11°C° 0 mm 3 mps 741 mmHg 68%
15:00 +10°C° 0 mm 3 mps 741 mmHg 72%
16:00 +9°C° 0 mm 2 mps 741 mmHg 76%
17:00 +8°C° 0 mm 2 mps 741 mmHg 80%
18:00 +8°C° 0 mm 2 mps 742 mmHg 81%
19:00 +9°C° 0 mm 1 mps 742 mmHg 82%
20:00 +9°C° 0 mm 1 mps 742 mmHg 82%
21:00 +8°C° 0 mm 1 mps 742 mmHg 84%
22:00 +8°C° 0 mm 1 mps 743 mmHg 85%
23:00 +8°C° 0 mm 1 mps 743 mmHg 86%

25 October, Sunday

Time Temperature Precipitation Wind Pressure Humidity
00:00 +8°C° 0 mm 1 mps 743 mmHg 88%
01:00 +7°C° 0 mm 1 mps 743 mmHg 89%
02:00 +7°C° 0 mm 1 mps 743 mmHg 91%
03:00 +7°C° 0 mm 1 mps 743 mmHg 91%
04:00 +6°C° 0 mm 2 mps 743 mmHg 91%
05:00 +6°C° 0 mm 2 mps 743 mmHg 91%
06:00 +6°C° 0 mm 2 mps 743 mmHg 90%
07:00 +6°C° 0 mm 2 mps 743 mmHg 88%
08:00 +7°C° 0 mm 2 mps 743 mmHg 87%
09:00 +7°C° 0.1 mm 2 mps 743 mmHg 87%
10:00 +7°C° 0.1 mm 2 mps 743 mmHg 87%
11:00 +7°C° 0.1 mm 2 mps 743 mmHg 87%
12:00 +7°C° 0.2 mm 3 mps 743 mmHg 89%
13:00 +7°C° 0.2 mm 3 mps 743 mmHg 90%
14:00 +7°C° 0.2 mm 3 mps 744 mmHg 91%
15:00 +7°C° 0.3 mm 3 mps 744 mmHg 92%
16:00 +7°C° 0.3 mm 3 mps 744 mmHg 92%
17:00 +7°C° 0.3 mm 3 mps 744 mmHg 93%
18:00 +7°C° 0.1 mm 3 mps 744 mmHg 93%
19:00 +7°C° 0.1 mm 3 mps 745 mmHg 92%
20:00 +7°C° 0.1 mm 2 mps 745 mmHg 92%
21:00 +7°C° 0 mm 3 mps 745 mmHg 91%
22:00 +7°C° 0 mm 3 mps 745 mmHg 90%
23:00 +7°C° 0 mm 3 mps 746 mmHg 89%

26 October, Monday

Time Temperature Precipitation Wind Pressure Humidity
00:00 +5°C° 0 mm 3 mps 746 mmHg 90%
01:00 +5°C° 0 mm 3 mps 746 mmHg 90%
02:00 +4°C° 0 mm 3 mps 746 mmHg 90%
03:00 +3°C° 0 mm 3 mps 747 mmHg 91%
04:00 +4°C° 0 mm 2 mps 747 mmHg 91%
05:00 +3°C° 0 mm 2 mps 747 mmHg 92%
06:00 +3°C° 0 mm 2 mps 748 mmHg 90%
07:00 +4°C° 0 mm 2 mps 748 mmHg 87%
08:00 +4°C° 0 mm 2 mps 749 mmHg 85%
09:00 +4°C° 0 mm 3 mps 749 mmHg 80%
10:00 +5°C° 0 mm 3 mps 749 mmHg 75%
11:00 +7°C° 0 mm 3 mps 750 mmHg 69%
12:00 +7°C° 0 mm 3 mps 750 mmHg 67%
13:00 +7°C° 0 mm 3 mps 750 mmHg 65%
14:00 +7°C° 0 mm 3 mps 750 mmHg 63%
15:00 +5°C° 0 mm 3 mps 750 mmHg 68%
16:00 +4°C° 0 mm 3 mps 750 mmHg 72%
17:00 +4°C° 0 mm 2 mps 751 mmHg 77%
18:00 +4°C° 0 mm 2 mps 751 mmHg 79%
19:00 +2°C° 0 mm 3 mps 751 mmHg 81%
20:00 +2°C° 0 mm 3 mps 752 mmHg 83%
21:00 +1°C° 0 mm 3 mps 752 mmHg 86%
22:00 +1°C° 0 mm 3 mps 752 mmHg 89%
23:00 +1°C° 0 mm 3 mps 752 mmHg 91%
Show more